Time,TemperatureF,DewpointF,PressureIn,WindDirection,WindDirectionDegrees,WindSpeedMPH,WindSpeedGustMPH,Humidity,HourlyPrecipIn,Conditions,Clouds,dailyrainin,SoftwareType,DateUTC
2013-02-06 00:07:00,36.0,18.0,30.02,WSW,250,4.0,9.0,48,0.00,,,0.00,weatherlink.com 1.10,2013-02-06 07:07:00,
2013-02-06 00:22:00,35.7,18.0,30.02,SW,225,6.0,10.0,49,0.00,,,0.00,weatherlink.com 1.10,2013-02-06 07:22:00,
2013-02-06 00:37:00,35.8,18.0,30.01,West,264,10.0,11.0,49,0.00,,,0.00,weatherlink.com 1.10,2013-02-06 07:37:00,
2013-02-06 00:52:00,36.1,18.0,30.01,WSW,249,8.0,14.0,48,0.00,,,0.00,weatherlink.com 1.10,2013-02-06 07:52:00,
2013-02-06 01:07:00,36.4,18.0,30.00,West,270,6.0,16.0,47,0.00,,,0.00,weatherlink.com 1.10,2013-02-06 08:07:00,
2013-02-06 01:22:00,36.5,18.0,30.00,West,260,8.0,15.0,47,0.00,,,0.00,weatherlink.com 1.10,2013-02-06 08:22:00,
2013-02-06 01:37:00,36.3,18.0,30.00,West,268,5.0,9.0,47,0.00,,,0.00,weatherlink.com 1.10,2013-02-06 08:37:00,
2013-02-06 01:52:00,35.9,18.0,30.00,WSW,250,2.0,12.0,48,0.00,,,0.00,weatherlink.com 1.10,2013-02-06 08:52:00,
2013-02-06 02:07:00,35.3,18.0,30.00,West,274,3.0,7.0,49,0.00,,,0.00,weatherlink.com 1.10,2013-02-06 09:07:00,
2013-02-06 02:22:00,34.3,17.0,30.00,West,271,3.0,10.0,50,0.00,,,0.00,weatherlink.com 1.10,2013-02-06 09:22:00,
2013-02-06 02:37:00,33.9,17.0,29.99,West,266,5.0,9.0,51,0.00,,,0.00,weatherlink.com 1.10,2013-02-06 09:37:00,
2013-02-06 02:52:00,33.8,17.0,29.98,WSW,255,7.0,14.0,51,0.00,,,0.00,weatherlink.com 1.10,2013-02-06 09:52:00,
2013-02-06 03:07:00,34.2,17.0,29.97,WSW,252,12.0,19.0,50,0.00,,,0.00,weatherlink.com 1.10,2013-02-06 10:07:00,
2013-02-06 03:22:00,34.3,17.0,29.96,WSW,237,6.0,15.0,50,0.00,,,0.00,weatherlink.com 1.10,2013-02-06 10:22:00,
2013-02-06 03:37:00,34.2,17.0,29.96,WSW,252,7.0,17.0,50,0.00,,,0.00,weatherlink.com 1.10,2013-02-06 10:37:00,
2013-02-06 03:52:00,34.0,17.0,29.96,West,271,4.0,15.0,50,0.00,,,0.00,weatherlink.com 1.10,2013-02-06 10:52:00,
2013-02-06 04:07:00,33.8,17.0,29.96,WSW,258,10.0,17.0,50,0.00,,,0.00,weatherlink.com 1.10,2013-02-06 11:07:00,
2013-02-06 04:22:00,33.8,17.0,29.96,West,274,13.0,18.0,50,0.00,,,0.00,weatherlink.com 1.10,2013-02-06 11:22:00,
2013-02-06 04:37:00,34.1,17.0,29.97,WNW,290,6.0,16.0,49,0.00,,,0.00,weatherlink.com 1.10,2013-02-06 11:37:00,
2013-02-06 04:52:00,34.1,17.0,29.96,West,259,4.0,17.0,49,0.00,,,0.00,weatherlink.com 1.10,2013-02-06 11:52:00,
2013-02-06 05:07:00,34.3,16.0,29.97,West,260,8.0,19.0,48,0.00,,,0.00,weatherlink.com 1.10,2013-02-06 12:07:00,
2013-02-06 05:22:00,34.1,17.0,29.97,West,259,5.0,15.0,49,0.00,,,0.00,weatherlink.com 1.10,2013-02-06 12:22:00,
2013-02-06 05:37:00,33.9,16.0,29.96,West,260,5.0,18.0,49,0.00,,,0.00,weatherlink.com 1.10,2013-02-06 12:37:00,
2013-02-06 05:52:00,33.7,16.0,29.96,SW,221,1.0,12.0,49,0.00,,,0.00,weatherlink.com 1.10,2013-02-06 12:52:00,
2013-02-06 06:07:00,33.4,16.0,29.96,West,263,3.0,11.0,49,0.00,,,0.00,weatherlink.com 1.10,2013-02-06 13:07:00,
2013-02-06 06:22:00,33.0,16.0,29.96,West,268,4.0,9.0,49,0.00,,,0.00,weatherlink.com 1.10,2013-02-06 13:22:00,
2013-02-06 06:37:00,32.5,15.0,29.96,West,267,6.0,8.0,49,0.00,,,0.00,weatherlink.com 1.10,2013-02-06 13:37:00,
2013-02-06 06:52:00,32.2,15.0,29.96,WNW,284,5.0,12.0,50,0.00,,,0.00,weatherlink.com 1.10,2013-02-06 13:52:00,
2013-02-06 07:07:00,32.6,16.0,29.96,WNW,292,5.0,17.0,50,0.00,,,0.00,weatherlink.com 1.10,2013-02-06 14:07:00,
2013-02-06 07:24:00,33.2,16.0,29.96,WSW,255,9.0,13.0,49,0.00,,,0.00,weatherlink.com 1.10,2013-02-06 14:24:00,
2013-02-06 07:37:00,33.8,16.0,29.96,SW,236,6.0,12.0,48,0.00,,,0.00,weatherlink.com 1.10,2013-02-06 14:37:00,
2013-02-06 07:52:00,34.6,16.0,29.96,WNW,289,5.0,11.0,47,0.00,,,0.00,weatherlink.com 1.10,2013-02-06 14:52:00,
2013-02-06 08:07:00,35.3,16.0,29.96,WNW,287,4.0,10.0,46,0.00,,,0.00,weatherlink.com 1.10,2013-02-06 15:07:00,
2013-02-06 08:22:00,36.3,16.0,29.97,West,270,8.0,8.0,44,0.00,,,0.00,weatherlink.com 1.10,2013-02-06 15:22:00,
2013-02-06 08:37:00,38.0,16.0,29.97,WSW,253,5.0,12.0,41,0.00,,,0.00,weatherlink.com 1.10,2013-02-06 15:37:00,
2013-02-06 08:52:00,38.6,16.0,29.98,WNW,294,4.0,12.0,40,0.00,,,0.00,weatherlink.com 1.10,2013-02-06 15:52:00,
2013-02-06 09:07:00,38.6,16.0,29.98,NNW,330,2.0,15.0,40,0.00,,,0.00,weatherlink.com 1.10,2013-02-06 16:07:00,
2013-02-06 09:22:00,39.2,16.0,29.98,West,259,2.0,18.0,39,0.00,,,0.00,weatherlink.com 1.10,2013-02-06 16:22:00,
2013-02-06 09:37:00,39.3,16.0,29.98,South,174,5.0,12.0,39,0.00,,,0.00,weatherlink.com 1.10,2013-02-06 16:37:00,
2013-02-06 09:52:00,39.2,16.0,29.97,WSW,246,10.0,18.0,39,0.00,,,0.00,weatherlink.com 1.10,2013-02-06 16:52:00,
2013-02-06 10:09:00,39.7,16.0,29.98,SSW,209,7.0,16.0,39,0.00,,,0.00,weatherlink.com 1.10,2013-02-06 17:09:00,
2013-02-06 10:22:00,39.8,17.0,29.98,NW,308,3.0,21.0,40,0.00,,,0.00,weatherlink.com 1.10,2013-02-06 17:22:00,
2013-02-06 10:37:00,39.3,17.0,29.98,WNW,290,9.0,17.0,40,0.00,,,0.00,weatherlink.com 1.10,2013-02-06 17:37:00,
2013-02-06 10:53:00,38.6,17.0,29.97,WNW,284,6.0,22.0,41,0.00,,,0.00,weatherlink.com 1.10,2013-02-06 17:53:00,
2013-02-06 11:07:00,38.1,17.0,29.97,West,271,10.0,21.0,42,0.00,,,0.00,weatherlink.com 1.10,2013-02-06 18:07:00,
2013-02-06 11:23:00,38.0,17.0,29.97,WNW,296,6.0,16.0,43,0.00,,,0.00,weatherlink.com 1.10,2013-02-06 18:23:00,
2013-02-06 11:37:00,38.0,18.0,29.97,West,264,6.0,15.0,44,0.00,,,0.00,weatherlink.com 1.10,2013-02-06 18:37:00,
2013-02-06 11:52:00,38.3,18.0,29.96,West,277,9.0,15.0,44,0.00,,,0.00,weatherlink.com 1.10,2013-02-06 18:52:00,
2013-02-06 12:07:00,39.1,18.0,29.95,SW,235,10.0,17.0,43,0.00,,,0.00,weatherlink.com 1.10,2013-02-06 19:07:00,
2013-02-06 12:22:00,39.2,18.0,29.95,West,273,9.0,16.0,42,0.00,,,0.00,weatherlink.com 1.10,2013-02-06 19:22:00,
2013-02-06 12:37:00,39.5,18.0,29.94,West,273,4.0,16.0,42,0.00,,,0.00,weatherlink.com 1.10,2013-02-06 19:37:00,
2013-02-06 12:52:00,39.8,18.0,29.94,West,276,4.0,16.0,42,0.00,,,0.00,weatherlink.com 1.10,2013-02-06 19:52:00,
2013-02-06 13:07:00,40.1,18.0,29.94,WSW,255,5.0,17.0,41,0.00,,,0.00,weatherlink.com 1.10,2013-02-06 20:07:00,
2013-02-06 13:23:00,40.0,18.0,29.93,NW,323,6.0,17.0,41,0.00,,,0.00,weatherlink.com 1.10,2013-02-06 20:23:00,
2013-02-06 13:37:00,39.4,18.0,29.94,NW,324,3.0,22.0,43,0.00,,,0.00,weatherlink.com 1.10,2013-02-06 20:37:00,
2013-02-06 13:52:00,38.7,20.0,29.94,West,269,7.0,18.0,47,0.00,,,0.00,weatherlink.com 1.10,2013-02-06 20:52:00,
2013-02-06 14:08:00,38.5,20.0,29.94,West,259,16.0,19.0,47,0.00,,,0.00,weatherlink.com 1.10,2013-02-06 21:08:00,
2013-02-06 14:22:00,38.3,20.0,29.94,West,263,1.0,15.0,47,0.00,,,0.00,weatherlink.com 1.10,2013-02-06 21:22:00,
2013-02-06 14:38:00,38.2,19.0,29.94,West,271,7.0,17.0,46,0.00,,,0.00,weatherlink.com 1.10,2013-02-06 21:38:00,
2013-02-06 14:53:00,38.2,19.0,29.94,West,277,7.0,14.0,46,0.00,,,0.00,weatherlink.com 1.10,2013-02-06 21:53:00,
2013-02-06 15:08:00,37.9,20.0,29.95,WSW,245,9.0,19.0,48,0.00,,,0.00,weatherlink.com 1.10,2013-02-06 22:08:00,
2013-02-06 15:23:00,37.7,19.0,29.95,SW,229,5.0,16.0,48,0.00,,,0.00,weatherlink.com 1.10,2013-02-06 22:23:00,
2013-02-06 15:38:00,37.9,20.0,29.96,West,265,3.0,12.0,49,0.00,,,0.00,weatherlink.com 1.10,2013-02-06 22:38:00,
2013-02-06 15:53:00,38.0,20.0,29.96,West,264,7.0,12.0,49,0.00,,,0.00,weatherlink.com 1.10,2013-02-06 22:53:00,
2013-02-06 16:08:00,37.8,20.0,29.97,West,265,9.0,12.0,49,0.00,,,0.00,weatherlink.com 1.10,2013-02-06 23:08:00,
2013-02-06 16:23:00,37.2,20.0,29.98,West,260,0.0,13.0,50,0.00,,,0.00,weatherlink.com 1.10,2013-02-06 23:23:00,
2013-02-06 16:38:00,36.4,19.0,30.00,ESE,103,0.0,5.0,50,0.00,,,0.00,weatherlink.com 1.10,2013-02-06 23:38:00,
2013-02-06 16:53:00,35.5,19.0,30.01,NE,55,0.0,4.0,51,0.00,,,0.00,weatherlink.com 1.10,2013-02-06 23:53:00,
2013-02-06 17:08:00,34.4,19.0,30.02,ENE,66,2.0,8.0,53,0.00,,,0.00,weatherlink.com 1.10,2013-02-07 00:08:00,
2013-02-06 17:23:00,33.6,19.0,30.03,NE,51,5.0,7.0,55,0.00,,,0.00,weatherlink.com 1.10,2013-02-07 00:23:00,
2013-02-06 17:38:00,32.1,23.0,30.03,East,80,0.0,10.0,69,0.00,,,0.00,weatherlink.com 1.10,2013-02-07 00:38:00,
2013-02-06 17:53:00,30.8,24.0,30.04,ENE,66,0.0,4.0,75,0.00,,,0.00,weatherlink.com 1.10,2013-02-07 00:53:00,
2013-02-06 18:08:00,29.9,24.0,30.05,ESE,123,3.0,5.0,79,0.00,,,0.00,weatherlink.com 1.10,2013-02-07 01:08:00,
2013-02-06 18:23:00,28.9,24.0,30.05,East,94,0.0,3.0,83,0.00,,,0.00,weatherlink.com 1.10,2013-02-07 01:23:00,
2013-02-06 18:38:00,28.5,24.0,30.06,East,94,0.0,0.0,84,0.00,,,0.00,weatherlink.com 1.10,2013-02-07 01:38:00,
2013-02-06 18:53:00,28.4,25.0,30.05,SW,223,0.0,3.0,85,0.00,,,0.00,weatherlink.com 1.10,2013-02-07 01:53:00,
2013-02-06 19:08:00,28.3,24.0,30.06,South,180,0.0,4.0,85,0.00,,,0.00,weatherlink.com 1.10,2013-02-07 02:08:00,
2013-02-06 19:23:00,28.1,25.0,30.07,South,173,0.0,4.0,86,0.00,,,0.00,weatherlink.com 1.10,2013-02-07 02:23:00,
2013-02-06 19:38:00,28.0,24.0,30.07,South,171,1.0,4.0,86,0.00,,,0.00,weatherlink.com 1.10,2013-02-07 02:38:00,
2013-02-06 19:53:00,27.6,24.0,30.07,South,172,0.0,1.0,85,0.00,,,0.00,weatherlink.com 1.10,2013-02-07 02:53:00,
2013-02-06 20:08:00,26.9,22.0,30.07,SW,220,7.0,11.0,81,0.00,,,0.00,weatherlink.com 1.10,2013-02-07 03:08:00,
2013-02-06 20:23:00,26.6,21.0,30.08,SW,227,9.0,17.0,79,0.00,,,0.00,weatherlink.com 1.10,2013-02-07 03:23:00,
2013-02-06 20:39:00,26.3,20.0,30.09,West,271,1.0,14.0,77,0.00,,,0.00,weatherlink.com 1.10,2013-02-07 03:39:00,
2013-02-06 20:53:00,26.0,19.0,30.10,WSW,245,5.0,11.0,76,0.00,,,0.00,weatherlink.com 1.10,2013-02-07 03:53:00,
2013-02-06 21:08:00,25.7,19.0,30.12,WNW,298,8.0,13.0,75,0.00,,,0.00,weatherlink.com 1.10,2013-02-07 04:08:00,
2013-02-06 21:23:00,25.5,19.0,30.13,West,278,5.0,12.0,76,0.00,,,0.00,weatherlink.com 1.10,2013-02-07 04:23:00,
2013-02-06 21:38:00,25.4,19.0,30.13,WNW,286,8.0,16.0,77,0.00,,,0.00,weatherlink.com 1.10,2013-02-07 04:38:00,
2013-02-06 21:54:00,25.3,19.0,30.14,WSW,247,11.0,15.0,78,0.00,,,0.00,weatherlink.com 1.10,2013-02-07 04:54:00,
2013-02-06 22:08:00,25.2,19.0,30.14,West,273,3.0,13.0,78,0.00,,,0.00,weatherlink.com 1.10,2013-02-07 05:08:00,
2013-02-06 22:24:00,25.1,18.0,30.14,WSW,253,14.0,17.0,75,0.00,,,0.00,weatherlink.com 1.10,2013-02-07 05:24:00,
2013-02-06 22:39:00,25.1,18.0,30.17,West,275,11.0,16.0,75,0.00,,,0.00,weatherlink.com 1.10,2013-02-07 05:39:00,
2013-02-06 22:54:00,24.8,18.0,30.18,WSW,252,7.0,12.0,75,0.00,,,0.00,weatherlink.com 1.10,2013-02-07 05:54:00,
2013-02-06 23:09:00,24.4,18.0,30.19,West,269,4.0,8.0,76,0.00,,,0.00,weatherlink.com 1.10,2013-02-07 06:09:00,
2013-02-06 23:24:00,23.6,17.0,30.19,WSW,238,7.0,14.0,76,0.00,,,0.00,weatherlink.com 1.10,2013-02-07 06:24:00,
2013-02-06 23:39:00,22.9,16.0,30.20,West,272,6.0,14.0,76,0.00,,,0.00,weatherlink.com 1.10,2013-02-07 06:39:00,
2013-02-06 23:54:00,22.5,16.0,30.20,West,269,6.0,14.0,76,0.00,,,0.00,weatherlink.com 1.10,2013-02-07 06:54:00,